Weather History for KGKJ - July, 2013

Change the Weather History Date:

Sunday, July 28, 2013

  Actual Average Record
Temperature  
Mean Temperature 62 °F -  
Max Temperature 69 °F 80 °F 91 °F (1964)
Min Temperature 57 °F 57 °F 44 °F (1977)
Degree Days  
Heating Degree Days 4    
Growing Degree Days 12 (Base 50)    
Moisture  
Dew Point 55 °F    
Average Humidity 79    
Maximum Humidity 100    
Minimum Humidity 54    
Precipitation  
Precipitation 0.01 in - - ()
Sea Level Pressure  
Sea Level Pressure 29.93 in    
Wind  
Wind Speed 5 mph (SW)    
Max Wind Speed 14 mph    
Max Gust Speed 20 mph    
Visibility 9 miles    
Events      
Averages and records for this station are not official NWS values.
T = Trace of Precipitation, MM = Missing Value Source: NWS Daily Summary

Daily Weather History Graph

Daily Weather History Graph

Search for Another Location

Airport or City:

Trip Planner

Search our weather history database for the weather conditions in past years. The results will help you decide how hot, cold, wet, or windy it might be!

Date:

Astronomy

Jul. 28, 2013 Rise Set
Actual Time 6:11 AM EDT 8:42 PM EDT
Civil Twilight 5:39 AM EDT 9:14 PM EDT
Nautical Twilight 5:00 AM EDT 9:53 PM EDT
Astronomical Twilight 4:15 AM EDT 10:37 PM EDT
Moon 11:56 PM EDT (7/28) 12:58 PM EDT (7/28)
Length of Visible Light 15h 34m
Length of Day
14h 30m
Waning Gibbous, 61% of the Moon is Illuminated
Jul 28
Waning Gibbous
Jul 29
Last Quarter
Aug 6
New
Aug 14
First Quarter
Aug 20
Full

Hourly Weather History & Observations

Time (EDT) Temp. Dew Point Humidity Pressure Visibility Wind Dir Wind Speed Gust Speed Precip Events Conditions
12:53 AM 63.0 °F 59.0 °F 87% 29.86 in 10.0 mi Variable 3.5 mph - N/A   Overcast
1:11 AM 62.6 °F 59.0 °F 88% 29.87 in 10.0 mi South 4.6 mph - N/A   Scattered Clouds
1:53 AM 60.1 °F 57.0 °F 90% 29.85 in 10.0 mi SSW 4.6 mph - N/A   Partly Cloudy
2:53 AM 59.0 °F 55.9 °F 90% 29.85 in 10.0 mi SSW 4.6 mph - N/A   Clear
3:13 AM 59.0 °F 55.4 °F 88% 29.89 in 10.0 mi SSW 4.6 mph - N/A   Mostly Cloudy
3:53 AM 59.0 °F 57.0 °F 93% 29.87 in 10.0 mi SSW 4.6 mph - N/A   Overcast
4:32 AM 59.0 °F 57.2 °F 94% 29.89 in 8.0 mi Calm Calm - N/A   Mostly Cloudy
4:53 AM 57.9 °F 57.0 °F 97% 29.88 in 7.0 mi SSW 3.5 mph - N/A   Scattered Clouds
5:53 AM 59.0 °F 57.0 °F 93% 29.90 in 8.0 mi Calm Calm - N/A   Scattered Clouds
6:23 AM 57.2 °F 57.2 °F 100% 29.92 in 7.0 mi Calm Calm - N/A   Mostly Cloudy
6:32 AM 57.2 °F 55.4 °F 94% 29.92 in 6.0 mi Calm Calm - N/A   Mostly Cloudy
6:53 AM 57.9 °F 55.9 °F 93% 29.91 in 3.0 mi Calm Calm - 0.01 in   Scattered Clouds
7:47 AM 60.8 °F 57.2 °F 88% 29.93 in 2.5 mi South 3.5 mph - N/A   Mostly Cloudy
7:53 AM 59.0 °F 57.9 °F 96% 29.92 in 3.0 mi South 3.5 mph - N/A   Mostly Cloudy
8:53 AM 62.1 °F 57.9 °F 86% 29.93 in 10.0 mi WSW 3.5 mph - N/A   Mostly Cloudy
9:16 AM 62.6 °F 57.2 °F 82% 29.94 in 10.0 mi SSW 3.5 mph - N/A   Mostly Cloudy
9:34 AM 62.6 °F 55.4 °F 77% 29.95 in 10.0 mi West 6.9 mph - N/A   Mostly Cloudy
9:44 AM 62.6 °F 57.2 °F 82% 29.95 in 10.0 mi WSW 8.1 mph - N/A   Mostly Cloudy
9:51 AM 62.6 °F 57.2 °F 82% 29.94 in 10.0 mi West 9.2 mph - N/A   Mostly Cloudy
9:53 AM 64.0 °F 57.0 °F 78% 29.93 in 10.0 mi West 8.1 mph - N/A   Mostly Cloudy
10:53 AM 64.9 °F 50.0 °F 58% 29.94 in 10.0 mi WSW 11.5 mph - N/A   Scattered Clouds
11:53 AM 66.0 °F 51.1 °F 59% 29.94 in 10.0 mi SW 8.1 mph - N/A   Scattered Clouds
12:53 PM 66.9 °F 50.0 °F 54% 29.95 in 10.0 mi SW 8.1 mph 19.6 mph N/A   Mostly Cloudy
1:53 PM 66.9 °F 51.1 °F 57% 29.95 in 10.0 mi West 13.8 mph - N/A   Mostly Cloudy
2:53 PM 66.9 °F 51.1 °F 57% 29.96 in 10.0 mi WSW 9.2 mph - N/A   Overcast
3:53 PM 66.9 °F 51.1 °F 57% 29.96 in 10.0 mi SSW 8.1 mph - N/A   Overcast
4:53 PM 64.9 °F 51.1 °F 61% 29.96 in 10.0 mi WSW 5.8 mph - N/A   Overcast
5:53 PM 64.0 °F 51.1 °F 63% 29.97 in 10.0 mi Variable 3.5 mph - N/A   Overcast
6:53 PM 63.0 °F 52.0 °F 67% 29.98 in 10.0 mi SSW 5.8 mph - N/A   Overcast
7:53 PM 62.1 °F 53.1 °F 72% 29.99 in 10.0 mi SSW 4.6 mph - N/A   Scattered Clouds
8:53 PM 60.1 °F 52.0 °F 75% 30.00 in 10.0 mi SW 4.6 mph - N/A   Partly Cloudy
9:53 PM 59.0 °F 51.1 °F 75% 30.02 in 10.0 mi SW 5.8 mph - N/A   Clear
10:53 PM 59.0 °F 51.1 °F 75% 30.03 in 10.0 mi SSW 4.6 mph - N/A   Mostly Cloudy
11:53 PM 59.0 °F 51.1 °F 75% 30.02 in 10.0 mi SW 4.6 mph - 0.00 in   Overcast